Time,TemperatureF,DewpointF,PressureIn,WindDirection,WindDirectionDegrees,WindSpeedMPH,WindSpeedGustMPH,Humidity,HourlyPrecipIn,Conditions,Clouds,dailyrainin,SolarRadiationWatts/m^2,SoftwareType,DateUTC
2013-07-21 00:32:00,65.0,53.0,-100.00,ENE,77,1.0,4.0,64,-99.99,,,0.00,0.000000,,2013-07-21 07:32:00,
2013-07-21 01:01:00,65.0,53.0,-100.00,ENE,77,1.0,4.0,64,-99.99,,,0.00,0.000000,,2013-07-21 08:01:00,
2013-07-21 01:33:00,64.0,52.0,-100.00,East,80,0.0,7.0,64,0.00,,,0.00,0.000000,,2013-07-21 08:33:00,
2013-07-21 01:43:00,64.0,52.0,-100.00,East,80,0.0,7.0,64,0.00,,,0.00,0.000000,,2013-07-21 08:43:00,
2013-07-21 01:52:00,64.0,52.0,-100.00,East,80,0.0,7.0,64,0.00,,,0.00,0.000000,,2013-07-21 08:52:00,
2013-07-21 02:42:00,63.0,51.0,-100.00,NNE,22,0.0,2.0,64,-99.99,,,0.00,0.000000,,2013-07-21 09:42:00,
2013-07-21 03:01:00,63.0,51.0,-100.00,NNE,22,0.0,2.0,64,-99.99,,,0.00,0.000000,,2013-07-21 10:01:00,
2013-07-21 04:43:00,61.0,49.0,-100.00,NE,55,1.0,4.0,65,-99.99,,,-99.99,0.000000,,2013-07-21 11:43:00,
2013-07-21 05:43:00,60.0,49.0,-100.00,ENE,69,0.0,3.0,66,-99.99,,,0.00,0.000000,,2013-07-21 12:43:00,
2013-07-21 07:02:00,60.0,50.0,-100.00,East,84,0.0,2.0,69,-99.99,,,0.00,17.000000,,2013-07-21 14:02:00,
2013-07-21 07:53:00,60.0,50.0,-100.00,East,84,0.0,2.0,69,-99.99,,,0.00,17.000000,,2013-07-21 14:53:00,
2013-07-21 08:32:00,66.0,53.0,-100.00,ENE,74,0.0,3.0,62,-99.99,,,0.00,59.000000,,2013-07-21 15:32:00,
2013-07-21 08:43:00,66.0,53.0,-100.00,ENE,74,0.0,3.0,62,-99.99,,,0.00,59.000000,,2013-07-21 15:43:00,
2013-07-21 08:53:00,66.0,53.0,-100.00,ENE,74,0.0,3.0,62,-99.99,,,0.00,59.000000,,2013-07-21 15:53:00,
2013-07-21 09:01:00,66.0,53.0,-100.00,ENE,74,0.0,3.0,62,-99.99,,,0.00,59.000000,,2013-07-21 16:01:00,
2013-07-21 09:32:00,78.0,54.0,-100.00,South,181,0.0,2.0,43,0.00,,,0.00,404.000000,,2013-07-21 16:32:00,
2013-07-21 09:43:00,78.0,54.0,-100.00,South,181,0.0,2.0,43,0.00,,,0.00,404.000000,,2013-07-21 16:43:00,
2013-07-21 09:52:00,78.0,54.0,-100.00,South,181,0.0,2.0,43,0.00,,,0.00,404.000000,,2013-07-21 16:52:00,
2013-07-21 10:01:00,78.0,54.0,-100.00,South,181,0.0,2.0,43,0.00,,,0.00,404.000000,,2013-07-21 17:01:00,
2013-07-21 10:33:00,85.0,52.0,-100.00,NNW,330,2.0,6.0,32,0.00,,,0.00,598.000000,,2013-07-21 17:33:00,
2013-07-21 10:43:00,85.0,52.0,-100.00,NNW,330,2.0,6.0,32,0.00,,,0.00,598.000000,,2013-07-21 17:43:00,
2013-07-21 10:53:00,85.0,52.0,-100.00,NNW,330,2.0,6.0,32,0.00,,,0.00,598.000000,,2013-07-21 17:53:00,
2013-07-21 11:01:00,85.0,52.0,-100.00,NNW,330,2.0,6.0,32,0.00,,,0.00,598.000000,,2013-07-21 18:01:00,
2013-07-21 11:32:00,88.0,54.0,-100.00,North,357,3.0,9.0,32,0.00,,,0.00,769.000000,,2013-07-21 18:32:00,
2013-07-21 11:43:00,88.0,54.0,-100.00,North,357,3.0,9.0,32,0.00,,,0.00,769.000000,,2013-07-21 18:43:00,
2013-07-21 11:52:00,88.0,54.0,-100.00,North,357,3.0,9.0,32,0.00,,,0.00,769.000000,,2013-07-21 18:52:00,
2013-07-21 12:01:00,88.0,54.0,-100.00,North,357,3.0,9.0,32,0.00,,,0.00,769.000000,,2013-07-21 19:01:00,
2013-07-21 12:32:00,90.0,54.0,-100.00,NNW,339,4.0,8.0,30,0.00,,,0.00,889.000000,,2013-07-21 19:32:00,
2013-07-21 12:42:00,90.0,54.0,-100.00,NNW,339,4.0,8.0,30,0.00,,,0.00,889.000000,,2013-07-21 19:42:00,
2013-07-21 12:52:00,90.0,54.0,-100.00,NNW,339,4.0,8.0,30,0.00,,,0.00,889.000000,,2013-07-21 19:52:00,
2013-07-21 13:01:00,90.0,54.0,-100.00,NNW,339,4.0,8.0,30,0.00,,,0.00,889.000000,,2013-07-21 20:01:00,
2013-07-21 13:32:00,93.0,55.0,-100.00,NW,310,3.0,9.0,28,0.00,,,0.00,966.000000,,2013-07-21 20:32:00,
2013-07-21 13:43:00,93.0,55.0,-100.00,NW,310,3.0,9.0,28,0.00,,,0.00,966.000000,,2013-07-21 20:43:00,
2013-07-21 13:52:00,93.0,55.0,-100.00,NW,310,3.0,9.0,28,0.00,,,0.00,966.000000,,2013-07-21 20:52:00,
2013-07-21 14:01:00,93.0,55.0,-100.00,NW,310,3.0,9.0,28,0.00,,,0.00,966.000000,,2013-07-21 21:01:00,
2013-07-21 14:32:00,95.0,56.0,-100.00,WNW,283,3.0,8.0,27,0.00,,,0.00,981.000000,,2013-07-21 21:32:00,
2013-07-21 14:43:00,95.0,56.0,-100.00,WNW,283,3.0,8.0,27,0.00,,,0.00,981.000000,,2013-07-21 21:43:00,
2013-07-21 14:52:00,95.0,56.0,-100.00,WNW,283,3.0,8.0,27,0.00,,,0.00,981.000000,,2013-07-21 21:52:00,
2013-07-21 15:01:00,95.0,56.0,-100.00,WNW,283,3.0,8.0,27,0.00,,,0.00,981.000000,,2013-07-21 22:01:00,
2013-07-21 15:32:00,94.0,55.0,-100.00,WNW,297,3.0,10.0,27,0.00,,,0.00,938.000000,,2013-07-21 22:32:00,
2013-07-21 15:43:00,94.0,55.0,-100.00,WNW,297,3.0,10.0,27,0.00,,,0.00,938.000000,,2013-07-21 22:43:00,
2013-07-21 15:52:00,94.0,55.0,-100.00,WNW,297,3.0,10.0,27,0.00,,,0.00,938.000000,,2013-07-21 22:52:00,
2013-07-21 16:01:00,94.0,55.0,-100.00,WNW,297,3.0,10.0,27,0.00,,,0.00,938.000000,,2013-07-21 23:01:00,
2013-07-21 16:32:00,93.0,53.0,-100.00,WNW,295,4.0,12.0,26,0.00,,,0.00,846.000000,,2013-07-21 23:32:00,
2013-07-21 16:43:00,93.0,53.0,-100.00,WNW,295,4.0,12.0,26,0.00,,,0.00,846.000000,,2013-07-21 23:43:00,
2013-07-21 16:53:00,93.0,53.0,-100.00,WNW,295,4.0,12.0,26,0.00,,,0.00,846.000000,,2013-07-21 23:53:00,
2013-07-21 17:01:00,93.0,53.0,-100.00,WNW,295,4.0,12.0,26,0.00,,,0.00,846.000000,,2013-07-22 00:01:00,
2013-07-21 17:22:00,91.0,52.0,-100.00,NW,324,4.0,10.0,27,0.00,,,0.00,703.000000,,2013-07-22 00:22:00,
2013-07-21 17:32:00,91.0,52.0,-100.00,NW,324,4.0,10.0,27,0.00,,,0.00,703.000000,,2013-07-22 00:32:00,
2013-07-21 17:42:00,91.0,52.0,-100.00,NW,324,4.0,10.0,27,0.00,,,0.00,703.000000,,2013-07-22 00:42:00,
2013-07-21 17:53:00,91.0,52.0,-100.00,NW,324,4.0,10.0,27,0.00,,,0.00,703.000000,,2013-07-22 00:53:00,
2013-07-21 18:01:00,91.0,52.0,-100.00,NW,324,4.0,10.0,27,0.00,,,0.00,703.000000,,2013-07-22 01:01:00,
2013-07-21 18:32:00,87.0,51.0,-100.00,NW,313,5.0,10.0,29,0.00,,,0.00,507.000000,,2013-07-22 01:32:00,
2013-07-21 18:42:00,87.0,51.0,-100.00,NW,313,5.0,10.0,29,0.00,,,0.00,507.000000,,2013-07-22 01:42:00,
2013-07-21 18:52:00,87.0,51.0,-100.00,NW,313,5.0,10.0,29,0.00,,,0.00,507.000000,,2013-07-22 01:52:00,
2013-07-21 19:01:00,87.0,51.0,-100.00,NW,313,5.0,10.0,29,0.00,,,0.00,507.000000,,2013-07-22 02:01:00,
2013-07-21 19:32:00,82.0,49.0,-100.00,NW,314,4.0,10.0,32,0.00,,,0.00,53.000000,,2013-07-22 02:32:00,
2013-07-21 19:43:00,82.0,49.0,-100.00,NW,314,4.0,10.0,32,0.00,,,0.00,53.000000,,2013-07-22 02:43:00,
2013-07-21 19:52:00,82.0,49.0,-100.00,NW,314,4.0,10.0,32,0.00,,,0.00,53.000000,,2013-07-22 02:52:00,
2013-07-21 20:01:00,82.0,49.0,-100.00,NW,314,4.0,10.0,32,0.00,,,0.00,53.000000,,2013-07-22 03:01:00,
2013-07-21 20:33:00,77.0,50.0,-100.00,NE,41,0.0,7.0,39,0.00,,,0.00,65.000000,,2013-07-22 03:33:00,
2013-07-21 20:43:00,77.0,50.0,-100.00,NE,41,0.0,7.0,39,0.00,,,0.00,65.000000,,2013-07-22 03:43:00,
2013-07-21 20:53:00,77.0,50.0,-100.00,NE,41,0.0,7.0,39,0.00,,,0.00,65.000000,,2013-07-22 03:53:00,
2013-07-21 21:01:00,77.0,50.0,-100.00,NE,41,0.0,7.0,39,0.00,,,0.00,65.000000,,2013-07-22 04:01:00,
2013-07-21 21:33:00,71.0,49.0,-100.00,ESE,116,0.0,3.0,46,0.00,,,0.00,4.000000,,2013-07-22 04:33:00,
2013-07-21 21:43:00,71.0,49.0,-100.00,ESE,116,0.0,3.0,46,0.00,,,0.00,4.000000,,2013-07-22 04:43:00,
2013-07-21 22:01:00,71.0,49.0,-100.00,ESE,116,0.0,3.0,46,0.00,,,0.00,4.000000,,2013-07-22 05:01:00,
2013-07-21 22:32:00,68.0,50.0,-100.00,ENE,77,1.0,3.0,52,0.00,,,0.00,0.000000,,2013-07-22 05:32:00,
2013-07-21 22:43:00,68.0,50.0,-100.00,ENE,77,1.0,3.0,52,0.00,,,0.00,0.000000,,2013-07-22 05:43:00,
2013-07-21 22:52:00,68.0,50.0,-100.00,ENE,77,1.0,3.0,52,0.00,,,0.00,0.000000,,2013-07-22 05:52:00,
2013-07-21 23:01:00,68.0,50.0,-100.00,ENE,77,1.0,3.0,52,0.00,,,0.00,0.000000,,2013-07-22 06:01:00,
2013-07-21 23:43:00,65.0,50.0,-100.00,East,79,2.0,4.0,58,0.00,,,0.00,0.000000,,2013-07-22 06:43:00,
2013-07-21 23:52:00,65.0,50.0,-100.00,East,79,2.0,4.0,58,0.00,,,0.00,0.000000,,2013-07-22 06:52:00,